Date String (YYYY-MM-DD hh:mm:ss) UTC,Instrument flags,absolute air pressure of the measurement (hPa),sample flow rate (lpm),inlet stack bypass flow (lpm),air temperature of the measurement (°C),ambient temperature measured by the external sensor (°C),aerosol sample conditioner tube jacket temperature (°C),OPC LED temperature (°C),internal box temperature (°C),relative humidity of the measurement (%),span deviation,mass concentration of particles derived from Lorenz-Mie calculation of OPC scattering (μg/m³),mass concentration of particles derived from Lorenz-Mie calculation of OPC scattering (μg/m³),mass concentration of particles derived from Lorenz-Mie calculation of OPC scattering (μg/m³)
DateTimeUTC,F1_M11,P_M11,Q1_M11,Q2_M11,T1_M11,T2_M11,T3_M11,T4_M11,T5_M11,U1_M11,ZSPAN_M11,X0_M11,X2_M11,X1_M11
2023-12-12 05:00:00,SystemResetWarning,0834.4,5.01,000.00,023.7,022.7,000.0,031.9,025.0,21.2,0000.0,0008.78,0006.00,0005.65
2023-12-12 05:01:00,SystemResetWarning,0834.4,4.99,000.00,023.7,022.7,000.0,031.9,025.0,21.2,0000.0,0008.84,0005.96,0005.59
2023-12-12 05:02:00,SystemResetWarning,0834.4,4.99,000.00,023.7,022.7,000.0,032.0,025.0,21.2,0000.0,0008.77,0005.89,0005.53
2023-12-12 05:03:00,SystemResetWarning,0834.4,4.99,000.00,023.7,022.7,000.0,032.0,025.0,21.2,0000.0,0008.58,0005.81,0005.46
2023-12-12 05:04:00,SystemResetWarning,0834.5,5.01,000.00,023.7,022.7,000.0,032.0,025.0,21.2,0000.0,0008.12,0005.72,0005.39
2023-12-12 05:05:00,SystemResetWarning,0834.5,5.00,000.00,023.7,022.7,000.0,032.0,025.0,21.2,0000.0,0008.01,0005.66,0005.34
2023-12-12 05:06:00,SystemResetWarning,0834.4,5.00,000.00,023.7,022.7,000.0,032.0,025.0,21.2,0000.0,0008.01,0005.63,0005.31
2023-12-12 05:07:00,SystemResetWarning,0834.5,4.99,000.00,023.7,022.7,000.0,032.0,025.0,21.2,0000.0,0007.96,0005.62,0005.29
2023-12-12 05:08:00,SystemResetWarning,0834.4,4.99,000.00,023.7,022.7,000.0,032.0,025.0,21.2,0000.0,0007.92,0005.60,0005.28
2023-12-12 05:09:00,SystemResetWarning,0834.5,5.01,000.00,023.7,022.7,000.0,032.0,025.0,21.2,0000.0,0007.83,0005.54,0005.26
2023-12-12 05:10:00,SystemResetWarning,0834.5,4.99,000.00,023.7,022.7,000.0,032.0,025.0,21.2,0000.0,0007.82,0005.50,0005.25
2023-12-12 05:11:00,SystemResetWarning,0834.5,4.99,000.00,023.7,022.7,000.0,032.0,025.0,21.2,0000.0,0007.83,0005.48,0005.24
2023-12-12 05:12:00,SystemResetWarning,0834.5,5.00,000.00,023.7,022.7,000.0,032.0,025.0,21.2,0000.0,0007.78,0005.48,0005.23
2023-12-12 05:13:00,SystemResetWarning,0834.4,5.01,000.00,023.7,022.7,000.0,032.0,025.0,21.2,0000.0,0007.88,0005.52,0005.24
2023-12-12 05:14:00,SystemResetWarning,0834.4,5.00,000.00,023.7,022.7,000.0,032.0,025.0,21.2,0000.0,0007.90,0005.53,0005.25
2023-12-12 05:15:00,SystemResetWarning,0834.4,4.98,000.00,023.7,022.7,000.0,032.0,025.0,21.2,0000.0,0007.87,0005.52,0005.25
2023-12-12 05:16:00,SystemResetWarning,0834.5,4.99,000.00,023.7,022.7,000.0,032.0,025.0,21.2,0000.0,0007.86,0005.51,0005.25
2023-12-12 05:17:00,SystemResetWarning,0834.5,5.01,000.00,023.7,022.7,000.0,032.0,025.0,21.2,0000.0,0007.82,0005.51,0005.27
2023-12-12 05:18:00,SystemResetWarning,0834.5,5.01,000.00,023.7,022.7,000.0,032.0,025.0,21.2,0000.0,0007.73,0005.48,0005.27
2023-12-12 05:19:00,SystemResetWarning,0834.5,4.99,000.00,023.7,022.7,000.0,032.0,025.0,21.3,0000.0,0007.70,0005.47,0005.26
2023-12-12 05:20:00,SystemResetWarning,0834.5,4.99,000.00,023.7,022.7,000.0,032.0,025.0,21.3,0000.0,0007.69,0005.45,0005.25
2023-12-12 05:21:00,SystemResetWarning,0834.5,5.01,000.00,023.7,022.7,000.0,032.0,025.0,21.3,0000.0,0007.60,0005.43,0005.23
2023-12-12 05:22:00,SystemResetWarning,0834.5,5.01,000.00,023.7,022.7,000.0,032.0,024.9,21.3,0000.0,0007.51,0005.39,0005.21
2023-12-12 05:23:00,SystemResetWarning,0834.5,4.99,000.00,023.6,022.7,000.0,032.0,024.9,21.3,0000.0,0007.50,0005.39,0005.20
2023-12-12 05:24:00,SystemResetWarning,0834.5,4.99,000.00,023.6,022.6,000.0,032.0,024.9,21.3,0000.0,0007.44,0005.35,0005.17
2023-12-12 05:25:00,SystemResetWarning,0834.5,5.01,000.00,023.6,022.6,000.0,031.9,025.0,21.3,0000.0,0007.39,0005.32,0005.13
2023-12-12 05:26:00,SystemResetWarning,0834.4,5.01,000.00,023.7,022.6,000.0,031.9,025.0,21.3,0000.0,0007.54,0005.30,0005.11
2023-12-12 05:27:00,SystemResetWarning,0834.4,4.98,000.00,023.7,022.6,000.0,031.9,025.0,21.3,0000.0,0007.81,0005.31,0005.10
2023-12-12 05:28:00,SystemResetWarning,0834.4,5.01,000.00,023.7,022.6,000.0,031.9,025.0,21.3,0000.0,0007.88,0005.30,0005.08
2023-12-12 05:29:00,SystemResetWarning,0834.4,5.01,000.00,023.7,022.6,000.0,031.9,025.0,21.3,0000.0,0007.98,0005.29,0005.06
2023-12-12 05:30:00,SystemResetWarning,0834.4,5.00,000.00,023.7,022.6,000.0,031.9,025.0,21.3,0000.0,0008.03,0005.29,0005.05
2023-12-12 05:31:00,SystemResetWarning,0834.4,4.99,000.00,023.7,022.6,000.0,031.9,025.0,21.3,0000.0,0008.04,0005.28,0005.04
2023-12-12 05:32:00,SystemResetWarning,0834.4,5.00,000.00,023.7,022.6,000.0,031.9,025.0,21.3,0000.0,0008.06,0005.28,0005.04
2023-12-12 05:33:00,SystemResetWarning,0834.4,5.00,000.00,023.6,022.6,000.0,031.9,024.9,21.3,0000.0,0008.10,0005.30,0005.04
2023-12-12 05:34:00,SystemResetWarning,0834.4,5.00,000.00,023.6,022.6,000.0,031.9,024.9,21.3,0000.0,0008.09,0005.29,0005.04
2023-12-12 05:35:00,SystemResetWarning,0834.4,5.00,000.00,023.6,022.6,000.0,031.9,024.9,21.3,0000.0,0009.18,0005.28,0005.04
2023-12-12 05:36:00,SystemResetWarning,0834.4,5.00,000.00,023.6,022.6,000.0,031.9,024.9,21.3,0000.0,0009.73,0005.31,0005.05
2023-12-12 05:37:00,SystemResetWarning,0834.4,5.00,000.00,023.6,022.6,000.0,031.9,024.9,21.3,0000.0,0010.05,0005.32,0005.05
2023-12-12 05:38:00,SystemResetWarning,0834.4,5.01,000.00,023.6,022.6,000.0,031.9,024.9,21.4,0000.0,0009.80,0005.33,0005.05
2023-12-12 05:39:00,SystemResetWarning,0834.5,4.99,000.00,023.6,022.5,000.0,031.9,024.9,21.4,0000.0,0009.70,0005.31,0005.03
2023-12-12 05:40:00,SystemResetWarning,0834.5,4.99,000.00,023.5,022.5,000.0,031.9,024.9,21.4,0000.0,0009.57,0005.28,0005.01
2023-12-12 05:41:00,SystemResetWarning,0834.5,5.00,000.00,023.5,022.5,000.0,031.9,024.9,21.4,0000.0,0009.54,0005.26,0004.99
2023-12-12 05:42:00,SystemResetWarning,0834.5,5.01,000.00,023.5,022.5,000.0,031.9,024.8,21.4,0000.0,0009.62,0005.27,0004.98
2023-12-12 05:43:00,SystemResetWarning,0834.5,5.01,000.00,023.5,022.5,000.0,031.9,024.8,21.4,0000.0,0009.75,0005.28,0004.97
2023-12-12 05:44:00,SystemResetWarning,0834.5,5.00,000.00,023.5,022.5,000.0,031.9,024.8,21.4,0000.0,0009.84,0005.27,0004.96
2023-12-12 05:45:00,SystemResetWarning,0834.5,5.00,000.00,023.5,022.4,000.0,031.9,024.8,21.4,0000.0,0009.83,0005.27,0004.96
2023-12-12 05:46:00,SystemResetWarning,0834.5,5.00,000.00,023.5,022.4,000.0,031.9,024.8,21.4,0000.0,0008.76,0005.28,0004.97
2023-12-12 05:47:00,SystemResetWarning,0834.5,4.99,000.00,023.5,022.4,000.0,031.8,024.8,21.4,0000.0,0008.53,0005.26,0004.96
2023-12-12 05:48:00,SystemResetWarning,0834.5,4.99,000.00,023.5,022.4,000.0,031.8,024.8,21.4,0000.0,0008.13,0005.23,0004.96
2023-12-12 05:49:00,SystemResetWarning,0834.5,5.00,000.00,023.5,022.4,000.0,031.8,024.7,21.4,0000.0,0008.09,0005.20,0004.96
2023-12-12 05:50:00,SystemResetWarning,0834.5,5.00,000.00,023.4,022.4,000.0,031.8,024.7,21.4,0000.0,0008.13,0005.21,0004.98
2023-12-12 05:51:00,SystemResetWarning,0834.5,5.00,000.00,023.4,022.4,000.0,031.8,024.7,21.4,0000.0,0008.23,0005.26,0005.00
2023-12-12 05:52:00,SystemResetWarning,0834.5,5.01,000.00,023.4,022.4,000.0,031.8,024.7,21.4,0000.0,0008.21,0005.28,0005.03
2023-12-12 05:53:00,SystemResetWarning,0834.5,5.00,000.00,023.4,022.4,000.0,031.8,024.7,21.4,0000.0,0008.11,0005.27,0005.04
2023-12-12 05:54:00,SystemResetWarning,0834.5,5.00,000.00,023.4,022.4,000.0,031.8,024.7,21.4,0000.0,0008.41,0005.29,0005.06
2023-12-12 05:55:00,SystemResetWarning,0834.4,5.00,000.00,023.4,022.4,000.0,031.8,024.7,21.5,0000.0,0008.32,0005.29,0005.08
2023-12-12 05:56:00,SystemResetWarning,0834.4,5.00,000.00,023.4,022.4,000.0,031.8,024.7,21.5,0000.0,0008.36,0005.29,0005.08
2023-12-12 05:57:00,SystemResetWarning,0834.4,5.00,000.00,023.4,022.4,000.0,031.8,024.7,21.5,0000.0,0008.32,0005.27,0005.08
2023-12-12 05:58:00,SystemResetWarning,0834.4,4.99,000.00,023.4,022.4,000.0,031.8,024.7,21.5,0000.0,0008.20,0005.28,0005.08
2023-12-12 05:59:00,SystemResetWarning,0834.4,5.00,000.00,023.4,022.4,000.0,031.7,024.7,21.5,0000.0,0008.04,0005.31,0005.09
